Vorticity
4 4 4 4 4 5 4 2 4 15 21 3 0 16 20 0 4 13 12 6 19 10 3 5 11 5 5 7 4 6 8 9 6 11 9 7 13 10
6 6 7 7 8 10 8 11 10 9 12 10 6 8 18 18 7 4 4 13 18 8 11 8 4 4 8 8 10 8 7 5 10 9 7 11 11 8
7 18 20 16 12 10 9 1 13 12 -7 19 4 12 -3 25 16 8 6 14 7 9 9 10 7 0 9 10 8 6 4 7 10 8 7 12 9 5
5 3 2 16 23 -1 13 23 1 -20 18 14 14 3 3 14 25 3 6 11 12 17 6 2 5 5 9 7 5 4 6 8 9 8 11 8 8 7
10 8 8 1 5 7 2 7 8 7 19 10 13 9 18 7 14 22 1 18 10 -8 8 11 20 10 7 6 6 7 4 14 7 9 9 9 7 8
16 18 18 16 15 14 10 13 16 9 28 1 -9 8 4 20 8 12 18 18 14 7 -3 9 13 8 8 4 6 2 11 8 10 9 10 6 9 11
11 13 13 14 15 14 17 13 20 21 12 16 8 20 -0 22 3 20 25 1 19 7 1 1 6 10 7 5 5 8 7 9 9 10 7 8 10 21
9 4 5 9 11 13 15 14 14 9 30 16 -1 6 17 10 12 16 25 -0 15 5 14 -23 -3 9 7 4 9 4 5 7 9 9 7 10 17 21
10 10 7 10 11 15 9 13 -3 14 20 -1 -18 -15 10 6 16 7 13 23 13 14 7 20 -0 6 8 5 4 4 8 9 9 7 11 14 24 11
13 13 15 13 11 14 9 19 29 18 21 11 30 7 24 9 7 22 14 10 15 13 12 -3 16 -4 9 5 2 9 10 10 8 10 14 21 13 13
9 12 15 14 15 16 18 21 18 16 18 15 5 17 4 19 20 11 12 -7 2 30 7 8 11 -1 11 3 3 10 10 9 9 13 19 16 12 11
12 15 17 18 21 19 29 23 28 11 17 6 12 10 22 28 11 13 21 8 17 29 -2 8 16 8 5 5 10 13 11 8 13 20 19 12 9 15
24 22 23 24 29 31 12 17 10 30 19 4 6 12 8 23 8 30 -3 34 18 3 13 -12 -7 7 4 10 13 11 7 10 18 18 12 9 16 27
22 25 30 36 21 18 11 19 11 16 7 0 20 29 25 16 17 20 13 23 -3 10 25 3 -14 -3 10 15 13 8 8 16 23 12 8 14 29 11
16 16 22 18 15 20 18 15 1 5 16 16 29 1 7 24 15 26 -3 17 31 -1 14 0 -5 10 15 14 8 8 18 20 14 8 14 30 13 13
14 8 13 11 9 20 28 22 6 14 16 0 15 13 13 21 4 5 -2 9 17 5 9 4 11 15 12 7 8 20 19 10 4 13 31 13 20 11
20 10 14 14 15 22 32 8 14 29 9 3 29 19 17 -14 16 7 12 -3 12 1 -5 8 12 9 9 9 19 21 9 5 17 27 22 11 15 18
12 13 14 16 20 16 36 19 3 12 10 21 19 -1 7 -13 20 6 2 5 16 -1 6 8 8 12 10 14 18 10 4 21 26 15 13 12 12 9
7 13 14 21 22 17 39 10 4 5 21 19 7 38 12 -23 2 8 10 3 -3 4 5 9 13 12 17 19 8 8 24 23 12 7 5 5 8 11
3 12 19 15 13 13 29 17 11 9 28 -7 20 25 17 11 2 5 16 3 -1 4 9 14 11 15 20 7 8 30 8 7 8 5 10 7 1 5
4 14 24 -3 -9 36 34 10 15 25 -2 12 -9 30 5 16 -11 11 -3 9 4 10 15 10 17 16 7 25 24 7 13 6 7 10 15 21 24 27
6 13 16 -7 0 21 31 2 5 -4 12 22 3 13 11 -4 11 3 1 5 11 14 12 18 12 19 29 4 9 2 8 16 27 25 21 18 8 12
8 11 16 2 8 14 25 10 -6 33 -1 25 6 30 6 1 10 5 6 10 15 13 15 15 32 8 10 4 6 11 19 31 26 33 27 31 42 20
Height
5652 5648 5643 5639 5634 5629 5626 5622 5616 5613 5613 5613 5608 5604 5599 5591 5589 5585 5583 5581 5581 5580 5578 5575 5571 5569 5565 5561 5557 5552 5547 5542 5536 5530 5523 5515 5506 5498
5635 5631 5627 5624 5619 5613 5611 5608 5603 5599 5596 5598 5593 5590 5586 5582 5576 5572 5571 5568 5569 5567 5565 5562 5558 5556 5553 5548 5544 5538 5534 5528 5522 5515 5508 5499 5490 5481
5618 5615 5611 5607 5602 5597 5593 5591 5588 5585 5578 5586 5579 5575 5572 5569 5565 5561 5559 5557 5555 5553 5552 5550 5546 5544 5542 5538 5532 5526 5520 5513 5507 5500 5492 5483 5473 5464
5596 5593 5591 5590 5587 5581 5577 5574 5572 5570 5565 5564 5564 5560 5557 5556 5553 5550 5548 5546 5544 5542 5540 5538 5535 5532 5529 5525 5519 5513 5506 5499 5493 5485 5475 5467 5457 5448
5575 5570 5569 5567 5565 5563 5559 5556 5556 5553 5551 5546 5551 5545 5542 5542 5538 5536 5536 5533 5531 5529 5527 5526 5523 5519 5515 5510 5504 5498 5493 5486 5479 5470 5459 5450 5442 5431
5557 5554 5550 5547 5544 5541 5539 5538 5537 5534 5533 5529 5530 5529 5529 5528 5525 5523 5522 5520 5518 5517 5516 5514 5511 5506 5502 5497 5490 5484 5479 5471 5463 5454 5444 5435 5425 5414
5539 5535 5531 5529 5527 5523 5518 5518 5519 5516 5515 5512 5514 5513 5514 5513 5511 5510 5508 5507 5505 5505 5503 5502 5499 5494 5488 5483 5478 5471 5464 5456 5448 5438 5428 5419 5408 5398
5517 5516 5512 5509 5506 5503 5500 5498 5499 5498 5498 5496 5493 5499 5500 5500 5498 5496 5494 5493 5493 5492 5490 5489 5486 5481 5475 5470 5464 5458 5449 5441 5432 5423 5414 5403 5392 5383
5495 5493 5494 5492 5488 5484 5483 5480 5481 5481 5480 5479 5481 5482 5485 5487 5485 5483 5482 5480 5480 5479 5477 5476 5474 5468 5462 5457 5452 5444 5436 5427 5418 5408 5398 5388 5378 5370
5475 5473 5470 5472 5468 5462 5460 5461 5462 5462 5462 5463 5464 5467 5469 5469 5462 5470 5469 5468 5467 5468 5467 5465 5461 5456 5451 5445 5438 5430 5422 5413 5403 5393 5383 5373 5365 5357
5457 5455 5449 5447 5446 5444 5440 5441 5441 5443 5445 5449 5449 5454 5453 5453 5454 5456 5457 5457 5455 5456 5456 5453 5449 5444 5439 5432 5424 5417 5408 5399 5388 5378 5369 5360 5353 5346
5435 5433 5429 5423 5426 5425 5423 5423 5425 5428 5429 5433 5433 5437 5437 5439 5442 5444 5445 5444 5443 5443 5443 5442 5437 5432 5426 5418 5410 5404 5394 5385 5374 5365 5357 5349 5342 5334
5408 5409 5408 5406 5406 5407 5406 5407 5411 5412 5416 5418 5421 5423 5424 5426 5429 5429 5431 5430 5434 5434 5432 5429 5425 5419 5413 5405 5397 5389 5380 5371 5361 5353 5345 5336 5329 5321
5386 5386 5387 5387 5388 5389 5391 5393 5396 5400 5403 5406 5408 5410 5413 5414 5417 5419 5420 5421 5424 5424 5421 5417 5413 5408 5400 5392 5383 5374 5365 5357 5349 5341 5332 5324 5317 5311
5370 5370 5371 5370 5371 5374 5377 5380 5384 5390 5392 5396 5398 5401 5403 5404 5405 5407 5411 5413 5413 5413 5409 5406 5402 5396 5388 5379 5369 5361 5351 5343 5335 5326 5318 5313 5308 5304
5357 5358 5357 5356 5359 5362 5365 5368 5374 5378 5383 5384 5386 5390 5392 5397 5398 5400 5401 5403 5403 5402 5399 5395 5390 5383 5375 5366 5357 5347 5341 5333 5323 5317 5311 5305 5300 5296
5346 5346 5346 5347 5349 5350 5353 5358 5363 5369 5373 5375 5378 5383 5385 5389 5391 5392 5393 5394 5393 5392 5389 5384 5377 5370 5362 5354 5346 5338 5329 5322 5315 5307 5302 5297 5292 5289
5334 5335 5336 5338 5339 5341 5344 5349 5355 5360 5364 5368 5370 5373 5377 5381 5384 5385 5385 5385 5384 5383 5378 5373 5366 5359 5350 5343 5336 5328 5319 5311 5303 5298 5294 5290 5285 5281
5323 5325 5327 5330 5331 5334 5337 5343 5348 5353 5357 5361 5363 5365 5369 5374 5378 5379 5378 5378 5376 5373 5368 5363 5356 5348 5340 5331 5324 5318 5307 5300 5295 5290 5286 5280 5276 5272
5313 5317 5320 5322 5326 5328 5331 5336 5341 5345 5348 5354 5357 5360 5363 5367 5371 5372 5372 5371 5368 5364 5360 5353 5346 5339 5331 5322 5312 5305 5301 5293 5287 5280 5274 5269 5265 5261
5304 5309 5313 5316 5319 5322 5325 5331 5334 5339 5343 5347 5352 5355 5358 5363 5365 5367 5366 5364 5361 5357 5351 5345 5338 5329 5321 5314 5306 5297 5290 5284 5277 5268 5259 5253 5246 5244
5297 5302 5306 5309 5314 5316 5320 5325 5330 5335 5339 5342 5346 5351 5354 5358 5360 5361 5361 5359 5355 5350 5345 5338 5329 5322 5315 5307 5298 5290 5279 5266 5258 5252 5248 5241 5234 5230
5289 5296 5300 5305 5309 5312 5317 5322 5327 5330 5333 5337 5343 5347 5351 5355 5357 5358 5356 5353 5350 5345 5338 5331 5325 5317 5309 5302 5292 5279 5267 5255 5245 5236 5230 5225 5221 5218